Cardinia Fun Run
Age Group Winner
AGRankBibNameGenderTime
10Km Run
Open Men
1.970Kiarie McIntyrem0:35:15,60
2.542PETER DUTTONm0:36:35,14
3.665Andrew Harrism0:42:59,21
4.797Jason Boocockm0:43:16,40
5.552CRAIG DRAKEFORDm0:43:19,47
6.905Steve Moxhamm0:43:21,40
7.550DARREN FITZPATRICKm0:43:33,34
8.703Andrew Mottm0:43:34,73
9.901Michael Haroldm0:44:16,03
10.504Tim Prydem0:44:30,61
11.930Michael Sillekensm0:44:53,73
12.818Damien PALMERm0:45:00,54
13.467James Gardm0:47:28,27
14.823Roger Sevenhuysenm0:47:30,18
15.667Luigi Donatom0:47:30,36
16.965Jeff Liddellm0:47:35,20
17.988Tim Gibsonm0:47:35,58
18.561Anthony Beckettm0:47:41,27
19.690Ravindra Herathm0:47:54,26
20.806Gerard Corkeronm0:48:23,50
21.975Rick O'Connorm0:49:19,24
22.579Geoff Hilderm0:49:22,12
23.846David Beckm0:49:26,55
24.886Hayden Westwoodm0:49:38,68
25.749Magor Hailum0:49:53,21
26.480Sam Websterm0:50:07,01
27.989Scott Gibsonm0:50:09,56
28.707Andrew Murphym0:50:12,03
29.501Matt Lloydm0:50:27,22
30.596Joe Dannaouim0:50:33,38
31.495Glenn Moloneym0:50:46,17
32.436Mark Fordm0:50:59,91
33.400Michael Soutterm0:51:29,78
34.995Geoff Lucasm0:51:44,49
35.993Andrew Gibsonm0:52:49,41
36.716Wesley Mannm0:52:57,41
37.964Louis Manism0:52:59,57
38.792Lars Jensenm0:53:05,93
39.685Gautam Pandeym0:53:07,40
40.766Laverick Alfredm0:53:56,12
41.482JESS MAWDSLEYm0:54:04,61
42.407Lee Mawdsleym0:56:03,08
43.900Darren D'Sylvam0:56:44,34
44.406Brad Abbottm0:57:12,28
45.653Dean Edwardsm0:57:44,22
46.657Shane Haynesm0:58:11,96
47.448Robby Allenm0:58:37,22
48.546BRETT MCNAMARAm0:58:50,80
49.777Samuel Schlegelm0:59:10,92
50.681Ryan Polem1:03:51,83
51.857Michael Ah-Fyem1:05:01,95
52.750Handriecks Chidzanjam1:06:28,52
53.783Juma Gatbelm1:06:32,45
54.672Frankie Palermom1:06:54,09
55.895Cain Hillierm1:07:24,30
56.438Saurav Banerjeem1:08:08,12
57.488Daniel Funderm1:09:36,83
58.610Daniel Edwardsm1:31:26,37
Boys U16
1.892Daniel Gassonm0:48:13,01
2.825Jed Sevenhuysenm0:49:23,80
3.556JACOB KEYSERSm0:53:17,36
4.897Hudson Jennerm0:55:18,60
Senior Men 50+
1.594Rob Centonzam0:47:41,27
2.560BRUCE VENABLESm0:48:41,19
3.996Matt Robinsonm0:48:42,74
4.684Brian Marshallm0:49:49,94
5.991Chip Meredithm0:52:43,06
6.985Smith Paulm0:53:22,23
7.984Peter Solarim0:53:22,46
8.663Vaughan de Riggsm0:54:32,47
9.541PAUL DUTTONm0:56:19,58
10.649Richard Bishopm0:56:28,13
11.851Kevin Dinsdalem1:00:56,28
12.994Tom Gibsonm1:06:09,47
Girls U16
1.819Sophie Coughlinw0:49:45,72
2.405Mia Wardalew0:55:35,47
3.893Ashleigh Gassonw0:57:38,92
4.871Taylah Edwardsw1:02:57,51
Open Ladies
1.413Jess Battonw0:43:24,11
2.622Mary Jo Dobellw0:48:22,61
3.921Alina Ovadiaw0:48:25,55
4.582Tammy Bracew0:49:21,64
5.980Stacey Bourkew0:49:53,35
6.796Jacqueline Earlyw0:50:37,20
7.581Jodie Caldwellw0:51:25,47
8.815Catherine Mckennaw0:52:26,79
9.840Jessica Thielew0:52:39,63
10.584Megan Humphrysw0:53:07,57
11.805Tessa Dehringw0:54:18,40
12.817Teneille Palmerw0:54:50,09
13.668Chrissy Clodew0:55:01,81
14.580Belinda Orfordw0:55:04,31
15.664Kim Keysersw0:55:05,19
16.702Haylee Juddw0:56:18,47
17.412Nikki Grisctiw0:57:00,12
18.604Zoe Bormanisw0:57:01,16
19.551KIM TEMPLETONw0:57:24,78
20.530REBEKAH MIDDLEMASTw0:58:55,90
21.983Charli Andreww0:59:31,78
22.981Debbie Tylerw0:59:37,79
23.824Samantha Sevenhuysenw0:59:50,60
24.982Karyn Andreww1:00:17,01
25.682Kelly Uttingw1:00:30,47
26.966Sam McConnellw1:00:45,30
27.719Fiona Suttonw1:01:46,70
28.865Shelley Smythew1:01:52,58
29.888Catherine Grbicw1:02:04,17
30.565Mel Edwardsw1:02:57,59
31.929Rebecca Underwoodw1:03:07,63
32.524CASEY MIDDLEMASTw1:04:31,50
33.674Melissa Ladbrokew1:05:20,62
34.465Danielle Grisctiw1:05:32,88
35.820Beth Carpenterw1:05:52,49
36.704Erin Tremewenw1:06:54,47
37.464Jenny Phillipsw1:07:11,98
38.422Eliza Silvaw1:07:21,41
39.894Nicole Careyw1:07:24,43
40.493Jodie Hoganw1:07:33,82
41.842Bridie Tippettw1:07:50,31
42.864Sarah Marksw1:07:50,45
43.695Michelle Jamesw1:08:15,79
44.435Leanne Marranw1:08:34,41
45.419Martine Vineyw1:08:42,09
46.902Kylie Fludew1:10:45,93
47.683Tracey Brennanw1:10:50,16
48.599Rebekah Lynessw1:11:32,58
49.564Tracie O'Brienw1:14:25,04
50.652Jasmin Bishopw1:16:34,76
51.634Trudy Randellw1:19:00,16
52.629Natascha Mazurekw1:19:00,16
53.459Maxine Babew1:20:14,73
54.725Amber Ericksenw1:31:40,43
Senior Ladies 50+
1.494June Petriew0:44:28,52
2.845Claire Beckw0:53:45,07
3.708Sharee Owensw0:57:27,40
4.671Rhonda Trengrovew1:07:30,53
5.460Jacqueline Peazoldw1:07:33,95
6.586Debbie Centonzaw1:11:32,80
7.813Helen Myallw1:13:10,02
8.726Jenny Ericksenw1:15:29,90
9.626Vicki Thompsonw1:28:36,83
5Km Run
Open Men
1.885Paul Wilsonm0:17:37,28
2.963Graham Bergrothm0:18:03,88
3.463Bill Barrym0:20:49,67
4.675Jarrod Buckley-Cookm0:21:10,53
5.838David O'Connorm0:21:52,41
6.532DANIEL STORMm0:21:54,36
7.896Tyler Husseym0:22:37,11
8.728Corey Simmonsm0:25:01,13
9.974Marcus Middelhausm0:25:05,12
10.804Lee Aartsm0:25:53,42
11.489Shane Normanm0:26:28,12
12.1000Simon Dowerm0:27:03,95
13.881Josh Lantingm0:28:02,03
14.676Damien Sherrym0:28:59,54
15.730Adam PORETTIm0:29:19,54
16.468Shaun O'lynnm0:31:04,66
17.834David Nuskem0:31:11,94
18.632Tim Prattm0:32:57,01
19.628Mark Teaguem0:33:24,52
20.479Paul Lambertm0:34:15,27
21.624Neil Poultonm0:34:30,69
22.761Cameron Samuelm0:34:49,78
23.830Darren Beveridgem0:36:36,23
24.779Lucky Masundam0:37:11,92
25.639Brad Kennaughm0:40:50,52
26.492Michael Haworthm0:45:44,90
27.959Denee Lalouettem0:50:15,46
28.789Kojo Akomeahm1:08:52,31
Boys U16
1.506BAILEY MORRELLm0:19:19,72
2.879Michael Handim0:20:42,91
3.882Otr Kapourm0:21:01,17
4.874Noel Lawrencem0:21:25,61
5.923Wilson Barrym0:21:57,35
6.514WILL LEWISm0:21:57,81
7.876Matt Kanem0:23:51,49
8.875Jerry Alengardenm0:23:51,55
9.880Riley Lantingm0:24:43,47
10.927Harry Underwoodm0:27:48,84
11.680Kai Sherrym0:28:57,98
12.711Kimm Daviesm0:29:43,64
13.763Isa Williem0:30:05,09
14.872Bailey Edwardsm0:30:26,69
15.926Raiden Bergmanm0:30:32,47
16.870Will Boodem0:31:09,39
17.631Seth Prattm0:31:31,61
18.928Riley Sutherlandm0:32:22,47
19.765Calvin Williem0:33:36,96
20.516SAM LEWISm0:34:02,75
21.633Dylen Grimstedm0:34:53,61
22.997Morgan Lambertm0:36:09,33
23.869Nic Boodem0:36:24,32
24.543MITCHELL PORETTIm0:38:21,50
25.547RONAN MCNAMARAm0:40:56,64
26.659Kody Haynesm0:49:25,92
27.544TOBY PORETTIm0:56:05,73
28.736Lachlan PORETTIm0:57:49,76
29.781Bradaon Masundam1:13:13,36
Senior Men 50+
1.625Trotter Robm0:26:56,18
2.960Osman Sobriem0:27:21,08
3.848John Boodem0:27:53,70
4.517LINDSAY SMITHm0:28:50,72
5.540PETER WRIGHTm0:29:02,72
6.862Neil Walshm0:31:32,47
7.505Peter Sandersm0:31:38,69
8.744Serge Coutym0:33:52,99
9.827Peter Sevenhuysenm0:48:54,12
1.962Sarah Parkitnyw0:32:48,75
Girls U16
1.679Bri Sherryw0:22:48,45
2.931Hayley Sillekensw0:23:16,24
3.873Sophie Grayw0:26:37,34
4.992Skylar Haynesw0:28:45,22
5.924Chelsea Millsw0:31:29,65
6.718Rachel Mannw0:32:12,67
7.998Charli Lambertw0:34:14,39
8.826Ava Sevenhuysenw0:34:55,65
9.878Freya Marchettiw0:34:56,30
10.832Maddy Beveridgew0:35:51,08
11.502Tiana Storeyw0:36:19,17
12.831Kayla Beveridgew0:36:34,32
13.548MOLLIE MCNAMARAw0:40:18,19
14.833Rylee Beveridgew0:41:27,58
15.969Tara Jenningsw0:42:32,01
16.767Lydia Alfredw0:43:47,52
17.743Lulu Gaziw0:48:15,55
18.662Shelby Haynesw0:49:33,77
Open Ladies
1.507LEISA MORRELLw0:22:38,67
2.450Belle Hannanw0:24:45,80
3.925Vikki Bergmanw0:25:52,05
4.883Chloe Maasw0:27:26,66
5.987Madeleine Howittw0:27:29,22
6.850Kate Turnerw0:29:14,78
7.855Lyndal Daviesw0:29:53,50
8.849Julie Thomasw0:30:53,74
9.709Pia Daviesw0:30:56,89
10.803Chantelle Aartsw0:31:03,44
11.968Stacey Woodfieldw0:31:10,02
12.791Jenelle Mcmurtriew0:31:21,89
13.490Breann Moodyw0:31:27,46
14.630Melissa Petersw0:31:31,94
15.971Karen Daviesw0:31:39,95
16.972Heidi Willigw0:31:56,88
17.509PATRICIA LEWISw0:31:59,01
18.476Sarah Adamsonw0:32:04,38
19.717Nicole Mannw0:32:12,79
20.477Caitlin Sampimonw0:32:32,41
21.856Melanie Nancew0:32:40,50
22.809Nicolle Withersw0:32:44,65
23.816Laura Kentw0:32:57,25
24.839Sara O'Connorw0:33:15,37
25.891Emily Hudsonw0:33:25,10
26.821Melanie Ritchiew0:33:32,34
27.808Renee Grayw0:33:32,43
28.623Anita Poultonw0:33:53,65
29.837Liz Rodgerw0:34:32,68
30.762Miria Samuelw0:34:50,10
31.889Natalie Nelsonw0:34:59,57
32.770Isabelle Millienw0:35:08,43
33.500Chrissy Lloydw0:35:13,94
34.496Sharon Daltonw0:35:14,22
35.836Palolo Lafaitelew0:35:48,16
36.700Sheree Strkw0:35:49,76
37.961Meagan Shaww0:36:02,20
38.478Claire Lambertw0:36:10,00
39.866Stephanie Mobbsw0:36:13,71
40.999Grace Empragew0:36:40,99
41.867Melissa Baronw0:36:40,99
42.775Auxilla Madhuvuw0:36:41,01
43.768Blessing Gaziw0:36:52,56
44.835Jody Lawsonw0:37:05,28
45.751Junior Chidzanjaw0:37:30,66
46.811Liz Wahlw0:37:35,38
47.774Venessa Jenningsw0:38:07,14
48.752Monica Dejiokw0:38:07,22
49.729Carolyn PORETTIw0:38:21,24
50.852Lasi Ierirow0:38:42,03
51.854Lisa Dumicichw0:38:47,85
52.863Renee Broadbentw0:38:55,93
53.654Belinda Haynesw0:39:07,41
54.677Kerri Sherryw0:39:13,28
55.562Lauren Beckettw0:39:31,14
56.904Alarna Sewellw0:40:11,84
57.444Nicole Toppw0:40:18,94
58.545DEB MCNAMARAw0:40:48,07
59.645Colette Kennaughw0:40:49,58
60.447Kim Allenw0:41:20,06
61.990Zivanja Copseyw0:41:20,12
62.829Kelly Beveridgew0:41:27,90
63.844Carol McKayw0:41:47,17
64.853Lisa Fullerw0:43:01,43
65.638Kristen Hilderw0:43:07,29
66.958Renee Caswellw0:44:47,04
67.635Bonny Peacheyw0:44:52,90
68.428Megan Parisew0:47:51,01
69.425Chantal Benisw0:47:51,18
70.780Pjephi Masundaw0:55:37,47
71.782Natalie Masundaw1:04:15,65
72.754Claudia Saderw1:08:08,63
73.756Shanandoah Schaffersw1:08:32,87
74.414Angela HalfpennywDNF
Senior Ladies 50+
1.922Susanne Huelsw0:20:13,56
2.899Brenda Wattsw0:26:59,44
3.807Shan Floydw0:27:32,82
4.847Ingrid Sneedonw0:30:01,07
5.812Sue Northw0:30:09,39
6.859Ann Waycottw0:34:16,53
7.523JUDIE RUNDLEw0:36:03,53
8.841Anne Hamiltonw0:36:41,17
9.868Jackie Boodew0:56:43,99
5Km Walk
Open Men
1.979Allan Morrism0:38:04,68
2.534ANDREW GRANTm0:49:31,77
3.715Michael Daviesm0:54:04,49
4.755Ricardo Schaffersm1:08:35,14
5.786Sean Jenningsm1:08:53,03
Boys U16
1.694Dinuga Herathm0:38:59,01
2.689Shubham Pandeym0:49:58,69
3.714Eli Daviesm0:54:02,85
4.620Thomas Edwardsm0:58:04,57
5.759Matteo Schafferm1:03:05,87
6.787Daniel Jenningsm1:03:06,98
Senior Men 50+
1.597Stan Waitesm0:50:01,55
1.788Marissa Jenningsw1:08:52,77
Girls U16
1.692Linuki Herathw0:37:31,12
2.537ALEXANDRA GRANTw0:49:31,65
3.538LEXI GRANTw0:57:37,85
4.574Izabelle Cailew0:58:02,22
5.578Felicity Cailew0:58:08,77
6.621Ella Edwardsw0:58:11,06
7.784Nyamar Gatkuothw1:08:08,63
8.760Eden Schafferw1:08:34,79
9.785Thouy Gatkuothw1:08:49,17
10.746Lulu Nkomow1:08:59,44
11.771Valerie Millienw1:09:11,26
Open Ladies
1.967Katie Jenningsw0:38:32,39
2.978Breannah Morrisw0:38:57,30
3.691Chamari Hewathondilagew0:40:24,65
4.906Veena Manniew0:44:22,33
5.794ANDREA VINCENTw0:45:57,56
6.793JOANNE DRUMMONDw0:45:57,62
7.595Kelly-Anne Centonzaw0:49:33,70
8.415Lisa Furnival-Monkw0:51:29,73
9.688Shobha Singhw0:51:41,75
10.973Lisa Collettw0:56:12,13
11.932Jessica Richardsw0:57:21,49
12.536CAROLINE GRANTw0:57:37,63
13.432Tracey Winchw0:57:48,83
14.566Michelle Petersw0:58:45,70
15.619Catherine Edwardsw0:58:46,87
16.748Dorah Nkomow1:00:03,33
Senior Ladies 50+
1.539SUE DALTONw0:42:38,73
2.860Michelle Howardw0:43:29,04
3.518MELANIE SMITHw0:48:25,12
4.828Ann Sevenhuysenw0:48:53,66
5.470Linda Reidw0:50:45,31
6.418Julie Furnivalw0:51:29,81
7.410Kathy Burgstahlerw0:51:56,37
8.976Lynn Richardsw0:57:21,27
9.431Jo Robertsonw0:57:49,73